DW8097 Weather Reports


Display with metric or nautical units.
time (UTC)temp
F
wind
direction
speed
MPH
gust
MPH
rain 1hr
in
rain 24hr
in
rain mn
in
humidity
%
barometer
mb
20200401064805 38 109 0.0 0.0 0.00 0.00 0.00 100 1016.9
20200401063119 38 109 0.0 0.0 0.00 0.00 0.00 100 1016.9
20200401061810 40 109 0.0 0.0 0.00 0.00 0.00 100 1016.9
20200401060130 41 109 0.0 0.0 0.00 0.00 0.00 7 1017.2
20200401054642 41 109 0.0 0.0 0.00 0.00 0.00 8 1017.4
20200401053130 42 109 0.0 0.0 0.00 0.00 0.00 10 1017.4
20200401051601 42 109 0.0 0.0 0.00 0.00 0.00 15 1017.3
20200401050056 43 109 0.0 0.0 0.00 0.00 0.00 14 1017.2
20200401044601 41 109 0.0 0.0 0.00 0.00 0.00 5 1017.1
20200401043025 43 109 0.0 0.0 0.00 0.00 0.00 17 1017.1
20200401041522 43 109 0.0 0.0 0.00 0.00 0.00 22 1017.0
20200401040037 44 109 0.0 0.0 0.00 0.00 0.00 24 1017.2
20200401034523 44 109 0.0 0.0 0.00 0.00 0.00 29 1017.2
20200401033008 45 109 0.0 0.0 0.00 0.00 0.00 28 1017.2
20200401031511 46 109 0.0 0.0 0.00 0.00 0.00 36 1017.1
20200401030115 46 109 0.0 0.0 0.00 0.00 0.00 31 1017.0
20200401024628 46 109 0.0 0.0 0.00 0.00 0.00 34 1017.0
20200401023221 46 109 0.0 0.0 0.00 0.00 0.00 37 1017.1
20200401021753 46 111 0.0 0.0 0.00 0.00 0.00 38 1017.0
20200401020103 46 105 0.0 0.0 0.00 0.00 0.00 41 1016.8
20200401014609 47 96 0.0 0.0 0.00 0.00 0.00 40 1016.6
20200401013133 49 96 0.0 0.0 0.00 0.00 0.00 45 1016.4
20200401011538 49 96 0.0 0.0 0.00 0.00 0.00 46 1016.3
20200401010037 49 96 0.0 0.0 0.00 0.00 0.00 44 1016.3
20200401004530 49 96 0.0 0.0 0.00 0.00 0.00 48 1016.1
20200401003035 50 93 0.0 0.0 0.00 0.00 0.00 49 1016.1
20200401001621 51 76 0.0 0.0 0.00 0.00 0.00 49 1016.2
20200401000018 52 65 0.0 0.0 0.00 0.00 0.00 48 1016.0
20200331234524 53 72 0.0 0.0 0.00 0.00 0.00 47 1016.2
20200331233051 55 84 0.0 0.0 0.00 0.00 0.00 45 1016.1
20200331231506 56 111 0.0 0.0 0.00 0.00 0.00 44 1016.1
20200331230225 57 94 0.0 0.0 0.00 0.00 0.00 41 1016.0
20200331224620 57 104 0.0 0.0 0.00 0.00 0.00 42 1016.1
20200331221620 58 102 0.0 0.0 0.00 0.00 0.00 42 1016.2
20200331220116 58 101 0.0 0.0 0.00 0.00 0.00 41 1016.4
20200331214551 56 90 0.0 0.0 0.00 0.00 0.00 43 1016.3
20200331213112 57 63 0.0 0.0 0.00 0.00 0.00 42 1016.3
20200331211555 56 115 0.0 0.0 0.00 0.00 0.00 41 1016.5
20200331210029 56 65 0.0 0.0 0.00 0.00 0.00 42 1016.6
20200331204523 56 69 0.0 0.0 0.00 0.00 0.00 42 1016.7
20200331203029 56 108 0.0 0.0 0.00 0.00 0.00 43 1016.9
20200331201528 57 62 0.0 0.0 0.00 0.00 0.00 43 1017.1
20200331200012 55 79 0.0 0.0 0.00 0.00 0.00 43 1017.3
20200331194508 56 84 0.0 0.0 0.00 0.00 0.00 44 1017.4
20200331193008 57 85 0.0 0.0 0.00 0.00 0.00 42 1017.5
20200331191651 55 57 0.0 0.0 0.00 0.00 0.00 44 1017.7
20200331190128 55 92 0.0 0.0 0.00 0.00 0.00 45 1017.8
20200331184612 57 78 0.0 0.0 0.00 0.00 0.00 44 1018.0
20200331183136 55 60 0.0 0.0 0.00 0.00 0.00 44 1018.2
20200331181607 53 36 0.0 0.0 0.00 0.00 0.00 46 1018.2
20200331180045 52 103 0.0 0.0 0.00 0.00 0.00 49 1018.4
20200331174535 52 348 0.0 0.0 0.00 0.00 0.00 47 1018.6
20200331173051 52 94 0.0 0.0 0.00 0.00 0.00 47 1018.7
20200331171544 51 51 0.0 0.0 0.00 0.00 0.00 49 1018.8
20200331170032 50 53 0.0 0.0 0.00 0.00 0.00 50 1019.0
20200331164538 49 71 0.0 0.0 0.00 0.00 0.00 50 1019.0
20200331163019 48 54 0.0 0.0 0.00 0.00 0.00 50 1019.2
20200331161517 48 58 0.0 0.0 0.00 0.00 0.00 51 1019.5
20200331160036 47 43 0.0 0.0 0.00 0.00 0.00 51 1019.6
20200331154508 46 24 0.0 0.0 0.00 0.00 0.00 50 1019.8
20200331153023 45 32 0.0 0.0 0.00 0.00 0.00 48 1019.9
20200331151634 43 290 0.0 0.0 0.00 0.00 0.00 48 1020.1
20200331150202 43 37 0.0 0.0 0.00 0.00 0.00 48 1020.2
20200331144622 42 62 0.0 0.0 0.00 0.00 0.00 46 1020.4
20200331143114 41 59 0.0 0.0 0.00 0.00 0.00 45 1020.4
20200331141544 41 54 0.0 0.0 0.00 0.00 0.00 40 1020.4
20200331140037 40 5 0.0 0.0 0.00 0.00 0.00 39 1020.5
20200331134617 39 42 0.0 0.0 0.00 0.00 0.00 35 1020.6
20200331133040 39 20 0.0 0.0 0.00 0.00 0.00 27 1020.7
20200331131533 38 39 0.0 0.0 0.00 0.00 0.00 24 1020.7
20200331130040 38 30 0.0 0.0 0.00 0.00 0.00 22 1020.8
20200331124521 37 27 0.0 0.0 0.00 0.00 0.00 11 1020.8
20200331123052 38 24 0.0 0.0 0.00 0.00 0.00 100 1020.7
20200331121516 37 24 0.0 0.0 0.00 0.00 0.00 100 1020.8
20200331120009 36 24 0.0 0.0 0.00 0.00 0.00 100 1020.8
20200331114503 36 24 0.0 0.0 0.00 0.00 0.00 100 1020.9
20200331113001 38 24 0.0 0.0 0.00 0.00 0.00 100 1021.1
20200331111608 37 24 0.0 0.0 0.00 0.00 0.00 100 1021.1
20200331110130 37 24 0.0 0.0 0.00 0.00 0.00 100 1021.3
20200331104617 38 24 0.0 0.0 0.00 0.00 0.00 100 1021.1
20200331101631 40 24 0.0 0.0 0.00 0.00 0.00 9 1021.2
20200331100119 41 24 0.0 0.0 0.00 0.00 0.00 13 1021.2
20200331094535 40 24 0.0 0.0 0.00 0.00 0.00 7 1021.1
20200331090049 39 24 0.0 0.0 0.00 0.00 0.00 8 1021.2
20200331084518 39 24 0.0 0.0 0.00 0.00 0.00 9 1021.3
20200331081530 40 26 0.0 0.0 0.00 0.00 0.00 20 1021.6
20200331080009 40 31 0.0 0.0 0.00 0.00 0.00 24 1021.7
20200331074506 40 32 0.0 0.0 0.00 0.00 0.00 23 1021.8
20200331071525 41 41 0.0 0.0 0.00 0.00 0.00 29 1021.9
20200331070004 41 30 0.0 0.0 0.00 0.00 0.00 31 1022.0